[[{"header":{"parameterUnit":"m.s-1","parameterCategory":1,"la1":30.2991,"la2":30.254,"lo1":-89.0895,"lo2":-89.0444,"dy":0.0017,"dx":0.0017,"nx":28,"ny":28,"refTime":"2025-01-10T09:00:00:Z","depth":0,"parameterNumber":2,"parameterNumberName":"U-component_of_WINDS"},"data":[0,0,0,0,0,0,0,0,0,0,0,0,0,0,0,0,0,0,0,0,0,0,0,0,0,0,0,0,0,0,0,0,0,0,0,0,0,0,0,0,0,0,0,0,0,0,0,0,0,0,0,0,0,0,0,0,0,0,1.6925,1.6924,0,1.6852,1.6851,1.685,1.6805,1.6804,1.6804,1.6804,1.6724,1.6722,1.6721,0,0,0,0,0,0,0,0,0,0,0,0,0,1.7021,1.702,1.6925,1.6924,1.6923,1.6852,1.6851,1.685,1.6805,1.6804,1.6804,1.6804,1.6725,1.6723,1.672,0,0,0,0,0,0,0,0,0,0,0,0,0,1.6967,1.7019,1.6925,1.6892,1.6888,1.6852,1.6851,1.685,1.6805,1.6804,1.6804,1.6804,1.6726,1.6723,1.672,1.6709,0,0,1.6711,1.671,0,0,0,0,0,0,0,0,1.697,1.6963,1.6898,1.6894,1.689,1.6837,1.6856,1.6802,1.6805,1.6836,1.6804,1.6804,1.6762,1.6756,1.6743,1.6706,1.6702,1.6711,1.6709,1.6708,1.6707,0,0,0,0,0,0,0,1.6974,1.6966,1.6896,1.6897,1.6892,1.688,1.6871,1.6845,1.6802,1.6834,1.683,1.6822,1.676,1.6746,1.6741,1.6701,1.6711,1.6709,1.6707,1.6706,1.6651,1.6651,0,0,0,0,0,0,1.6983,1.697,1.6898,1.6894,1.693,1.6878,1.6869,1.6854,1.6802,1.6794,1.6823,1.6821,1.6751,1.6744,1.6738,1.6721,1.6708,1.6705,1.6704,1.6651,1.6651,1.6651,0,0,0,0,0,0,1.6986,1.6977,1.6901,1.6931,1.692,1.6877,1.6861,1.6853,1.6839,1.6794,1.6785,1.6817,1.675,1.6742,1.6717,1.6718,1.6704,1.6702,1.665,1.6651,1.6651,1.6689,0,0,0,0,0,0,1.6989,1.6978,1.6975,1.6931,1.6919,1.6883,1.6861,1.6852,1.6835,1.6831,1.6786,1.6778,1.6749,1.6722,1.6714,1.6714,1.6699,1.665,1.6651,1.6651,1.6687,1.669,1.6693,0,0,0,0,0,1.6992,1.6987,1.6975,1.6967,1.6913,1.6883,1.6876,1.6844,1.6835,1.6831,1.6802,1.678,1.6719,1.6719,1.6711,1.6709,1.665,1.665,1.6651,1.6686,1.669,1.6693,0,0,0,0,0,0,1.703,1.6981,1.6967,1.6948,1.692,1.6876,1.6869,1.6849,1.6822,1.682,1.678,1.677,1.675,1.6727,1.6728,1.6696,1.6682,1.6681,1.6712,1.6715,1.6718,1.6723,1.6697,0,0,0,0,0,1.7037,1.7018,1.6975,1.6963,1.695,1.6912,1.6898,1.6876,1.6845,1.6833,1.6802,1.6771,1.6745,1.6729,1.6703,1.6684,1.6673,1.6679,1.6682,1.6685,1.6684,1.6672,1.6674,1.6653,1.6653,1.6653,0,0,1.705,1.7021,1.7011,1.697,1.6946,1.6926,1.6902,1.6882,1.6866,1.6829,1.6804,1.678,1.6744,1.6722,1.6711,1.6703,1.6687,1.6685,1.6688,1.6685,1.6673,1.6675,1.6676,1.6654,1.6654,1.6653,0,0,1.7063,1.7039,1.7026,1.7003,1.6968,1.6943,1.694,1.6899,1.6882,1.6857,1.6829,1.6809,1.6765,1.674,1.6722,1.6727,1.6705,1.6719,1.6734,1.6723,1.6725,1.6726,1.6727,1.6728,1.6719,1.6719,1.6719,0,1.7083,1.7053,1.7022,1.7003,1.6986,1.6953,1.6939,1.6918,1.6875,1.6863,1.6855,1.68,1.6773,1.6745,1.6747,1.6733,1.6727,1.6724,1.6727,1.6728,1.6729,1.6729,1.673,1.6721,1.672,1.672,1.672,0,1.7079,1.7058,1.7052,1.7013,1.6995,1.6979,1.6944,1.6929,1.6909,1.6885,1.6859,1.6826,1.6793,1.6785,1.6764,1.6754,1.675,1.6735,1.672,1.6733,1.6733,1.6733,1.6723,1.6723,1.6722,1.6722,0,0,1.7112,1.7058,1.7056,1.7038,1.6998,1.6981,1.6963,1.6932,1.6919,1.6891,1.6874,1.6839,1.6826,1.6805,1.6781,1.6772,1.6777,1.6758,1.6756,1.6762,1.6763,1.6773,1.6774,1.6763,1.6763,1.6763,1.6765,0,1.7118,1.7086,1.7058,1.7035,1.7016,1.6985,1.6969,1.6942,1.6919,1.6898,1.6871,1.6847,1.6831,1.6819,1.6808,1.6779,1.6776,1.6778,1.6745,1.6745,1.6755,1.6774,1.6785,1.6789,1.6765,1.6765,1.6765,0,1.7121,1.7096,1.7072,1.7034,1.7025,1.7011,1.6981,1.6962,1.693,1.6913,1.6891,1.6867,1.6845,1.6834,1.6803,1.6805,1.679,1.6773,1.6773,1.6767,1.6755,1.6768,1.6789,1.6789,1.6765,1.6765,1.6765,0,1.7147,1.7108,1.7088,1.7074,1.7029,1.702,1.7001,1.6969,1.6952,1.6925,1.6914,1.6884,1.6867,1.6844,1.6812,1.6807,1.6784,1.677,1.6769,1.677,1.6764,1.6765,1.6782,1.6757,1.6757,1.6757,1.6757,0,1.7156,1.7143,1.7099,1.7087,1.7071,1.7039,1.7023,1.7,1.6972,1.6954,1.6926,1.6909,1.6869,1.6847,1.6822,1.68,1.6792,1.6778,1.6771,1.6779,1.6781,1.6768,1.6767,1.6757,1.6757,1.6757,1.6757,0,1.7182,1.7153,1.713,1.709,1.7079,1.7069,1.7034,1.702,1.6997,1.6974,1.6967,1.6929,1.6902,1.6868,1.683,1.6813,1.6793,1.6783,1.6804,1.68,1.6801,1.6801,1.6809,1.6808,1.6785,1.6785,1.6785,0,1.7189,1.7178,1.7138,1.7125,1.7107,1.7086,1.7069,1.7037,1.702,1.6984,1.6974,1.6946,1.6921,1.6879,1.6847,1.6817,1.6806,1.6811,1.6801,1.681,1.6805,1.6806,1.6804,1.6813,1.6814,1.6814,1.6814,0,1.7205,1.7192,1.717,1.7143,1.7124,1.7101,1.7076,1.7067,1.7029,1.7012,1.6985,1.6966,1.6928,1.6899,1.6866,1.6844,1.6822,1.6818,1.6816,1.6824,1.6836,1.6829,1.681,1.6817,1.6817,1.6817,1.6817,1.6817,1.7221,1.721,1.718,1.7157,1.7135,1.7113,1.7099,1.7074,1.7051,1.7019,1.7001,1.6974,1.6942,1.6896,1.6875,1.6853,1.6845,1.6842,1.6841,1.6841,1.6843,1.6841,1.6846,1.6846,1.6846,1.6846,1.6846,0,1.7235,1.7215,1.7193,1.7161,1.7142,1.7126,1.7098,1.7083,1.706,1.7033,1.701,1.6979,1.6951,1.6918,1.6887,1.6876,1.6865,1.6869,1.6869,1.6864,1.6852,1.6857,1.6878,1.6878,1.6878,1.6878,1.6878,1.6878,1.724,1.722,1.7203,1.7172,1.7151,1.7127,1.7112,1.7091,1.7069,1.7037,1.7014,1.6993,1.6963,1.6931,1.6904,1.6895,1.6884,1.6891,1.6879,1.6868,1.6865,1.6862,1.6866,1.6889,1.6889,1.6892,1.6892,1.6892]},{"header":{"parameterUnit":"m.s-1","parameterCategory":1,"la1":30.2991,"la2":30.254,"lo1":-89.0895,"lo2":-89.0444,"dy":0.0017,"dx":0.0017,"nx":28,"ny":28,"refTime":"2025-01-10T09:00:00:Z","depth":0,"parameterNumber":3,"parameterNumberName":"V-component_of_WINDS"},"data":[0,0,0,0,0,0,0,0,0,0,0,0,0,0,0,0,0,0,0,0,0,0,0,0,0,0,0,0,0,0,0,0,0,0,0,0,0,0,0,0,0,0,0,0,0,0,0,0,0,0,0,0,0,0,0,0,0,0,-4.2814,-4.2816,0,-4.3013,-4.3015,-4.3017,-4.3038,-4.3036,-4.3034,-4.3032,-4.3235,-4.3242,-4.3249,0,0,0,0,0,0,0,0,0,0,0,0,0,-4.2454,-4.2461,-4.2814,-4.2817,-4.2819,-4.3012,-4.3015,-4.3018,-4.3038,-4.3036,-4.3033,-4.3031,-4.3233,-4.3241,-4.325,0,0,0,0,0,0,0,0,0,0,0,0,0,-4.2627,-4.2463,-4.2814,-4.2853,-4.2858,-4.3012,-4.3015,-4.3018,-4.3039,-4.3036,-4.3033,-4.303,-4.323,-4.324,-4.3251,-4.338,0,0,-4.3285,-4.3289,0,0,0,0,0,0,0,0,-4.2617,-4.264,-4.2844,-4.285,-4.2857,-4.2997,-4.2963,-4.314,-4.304,-4.297,-4.3032,-4.3028,-4.3158,-4.3175,-4.3219,-4.3389,-4.3398,-4.3286,-4.3292,-4.3297,-4.33,0,0,0,0,0,0,0,-4.2605,-4.2632,-4.2893,-4.2847,-4.2855,-4.2861,-4.2882,-4.2996,-4.3079,-4.2976,-4.2978,-4.3001,-4.3161,-4.3208,-4.3224,-4.3401,-4.3285,-4.3295,-4.3302,-4.3306,-4.3689,-4.3692,0,0,0,0,0,0,-4.2586,-4.2622,-4.2886,-4.2899,-4.2727,-4.2869,-4.2893,-4.2955,-4.3078,-4.3094,-4.3004,-4.3001,-4.3191,-4.3211,-4.3231,-4.3392,-4.3297,-4.3307,-4.3314,-4.3685,-4.3689,-4.3693,0,0,0,0,0,0,-4.2578,-4.2609,-4.2878,-4.2761,-4.2796,-4.2879,-4.2948,-4.2961,-4.3008,-4.3099,-4.3113,-4.3037,-4.319,-4.3216,-4.3343,-4.3399,-4.3312,-4.3322,-4.3681,-4.3686,-4.3691,-4.3712,0,0,0,0,0,0,-4.2568,-4.2606,-4.2656,-4.2762,-4.2802,-4.2987,-4.2952,-4.2967,-4.3027,-4.3026,-4.3134,-4.3148,-4.3189,-4.3327,-4.3354,-4.3412,-4.3331,-4.3676,-4.3683,-4.369,-4.3707,-4.3717,-4.3726,0,0,0,0,0,-4.2555,-4.2653,-4.2658,-4.269,-4.2865,-4.299,-4.3013,-4.3058,-4.3031,-4.3082,-4.314,-4.3145,-4.3388,-4.334,-4.3371,-4.3433,-4.3673,-4.3681,-4.3689,-4.3702,-4.3715,-4.3726,0,0,0,0,0,0,-4.2552,-4.2668,-4.2675,-4.281,-4.289,-4.2993,-4.3059,-4.307,-4.3159,-4.3154,-4.3206,-4.323,-4.3356,-4.3407,-4.3351,-4.3565,-4.3528,-4.3542,-4.3527,-4.354,-4.355,-4.3536,-4.334,0,0,0,0,0,-4.2567,-4.2658,-4.2755,-4.2865,-4.2905,-4.2975,-4.3031,-4.3059,-4.3143,-4.3177,-4.3245,-4.3327,-4.3422,-4.3484,-4.3576,-4.3713,-4.3738,-4.3772,-4.3781,-4.3789,-4.3802,-4.388,-4.3897,-4.372,-4.372,-4.372,0,0,-4.2599,-4.2674,-4.2728,-4.2866,-4.2932,-4.3026,-4.3003,-4.3103,-4.3174,-4.3192,-4.3318,-4.337,-4.3465,-4.3599,-4.3661,-4.3645,-4.3856,-4.3799,-4.3805,-4.3814,-4.389,-4.3907,-4.3922,-4.3725,-4.3724,-4.3723,0,0,-4.2706,-4.2771,-4.2871,-4.2937,-4.3036,-4.3082,-4.3106,-4.3208,-4.3244,-4.337,-4.3386,-4.3471,-4.3633,-4.3701,-4.3756,-4.389,-4.3898,-4.3918,-4.3971,-4.4046,-4.406,-4.4073,-4.4123,-4.414,-4.393,-4.393,-4.393,0,-4.2734,-4.2876,-4.2921,-4.3022,-4.3083,-4.3104,-4.3206,-4.3268,-4.3392,-4.3434,-4.3414,-4.3619,-4.3684,-4.3835,-4.3867,-4.3911,-4.3941,-4.3907,-4.4055,-4.4068,-4.408,-4.4128,-4.4147,-4.3932,-4.3932,-4.3932,-4.3932,0,-4.2906,-4.3005,-4.3074,-4.3194,-4.3262,-4.3363,-4.3424,-4.3488,-4.3509,-4.3558,-4.3687,-4.3766,-4.3875,-4.3913,-4.3934,-4.4067,-4.4054,-4.4044,-4.4008,-4.4098,-4.4144,-4.4163,-4.3935,-4.3934,-4.3934,-4.3933,0,0,-4.3018,-4.3162,-4.3187,-4.3242,-4.3353,-4.343,-4.3532,-4.3639,-4.3694,-4.3779,-4.3867,-4.4003,-4.3995,-4.4058,-4.4088,-4.4154,-4.4257,-4.4136,-4.4139,-4.4157,-4.441,-4.4419,-4.4439,-4.4262,-4.4266,-4.4269,-4.4403,0,-4.3139,-4.3322,-4.3366,-4.3522,-4.3615,-4.3636,-4.3725,-4.3803,-4.3851,-4.3937,-4.3989,-4.4087,-4.4067,-4.4105,-4.4172,-4.423,-4.4309,-4.4221,-4.4346,-4.435,-4.4324,-4.4463,-4.4473,-4.4595,-4.4421,-4.4424,-4.4426,0,-4.3306,-4.3395,-4.3561,-4.3661,-4.3701,-4.3781,-4.3884,-4.3965,-4.4054,-4.4084,-4.4155,-4.4178,-4.4286,-4.4243,-4.4393,-4.4333,-4.4386,-4.4423,-4.4429,-4.4444,-4.4395,-4.4484,-4.4635,-4.4654,-4.4455,-4.4452,-4.445,0,-4.3373,-4.3534,-4.3655,-4.3701,-4.3821,-4.3876,-4.3929,-4.4015,-4.4077,-4.4166,-4.4208,-4.4308,-4.4364,-4.4441,-4.4491,-4.4455,-4.4638,-4.4599,-4.4667,-4.4666,-4.4706,-4.4703,-4.487,-4.4737,-4.4737,-4.4736,-4.4736,0,-4.3506,-4.3607,-4.3687,-4.3762,-4.3876,-4.3925,-4.4037,-4.409,-4.4166,-4.4252,-4.4276,-4.4355,-4.4416,-4.4504,-4.4544,-4.4663,-4.4687,-4.4715,-4.4725,-4.4715,-4.4711,-4.4752,-4.4746,-4.4741,-4.474,-4.4739,-4.4738,0,-4.3601,-4.3659,-4.3792,-4.3894,-4.3922,-4.4002,-4.409,-4.4163,-4.4211,-4.4319,-4.4348,-4.4423,-4.4529,-4.4586,-4.4717,-4.4744,-4.4878,-4.4882,-4.4849,-4.4853,-4.4919,-4.4913,-4.5119,-4.515,-4.4994,-4.4995,-4.4997,0,-4.3683,-4.3761,-4.3872,-4.3931,-4.3984,-4.4079,-4.4143,-4.4194,-4.426,-4.4368,-4.4429,-4.4535,-4.4623,-4.4791,-4.4858,-4.4959,-4.4967,-4.5032,-4.4982,-4.497,-4.4971,-4.4966,-4.4975,-4.5042,-4.5043,-4.5044,-4.5045,0,-4.3822,-4.3847,-4.3938,-4.404,-4.4115,-4.4198,-4.4279,-4.4326,-4.4391,-4.4464,-4.4572,-4.464,-4.4775,-4.4881,-4.4988,-4.5042,-4.5056,-4.506,-4.5082,-4.5073,-4.5051,-4.5066,-4.4875,-4.5056,-4.5055,-4.5054,-4.5053,-4.5053,-4.3915,-4.3986,-4.4076,-4.4177,-4.4244,-4.432,-4.4394,-4.4452,-4.4543,-4.4657,-4.4682,-4.4796,-4.4884,-4.5029,-4.5086,-4.5177,-4.5164,-4.5195,-4.5203,-4.521,-4.5214,-4.5035,-4.5196,-4.5196,-4.5196,-4.5196,-4.5195,0,-4.4058,-4.4116,-4.4209,-4.4322,-4.4402,-4.4407,-4.4497,-4.4564,-4.4665,-4.4746,-4.4832,-4.4957,-4.506,-4.5136,-4.5241,-4.5299,-4.5308,-4.5326,-4.5323,-4.5336,-4.5218,-4.519,-4.5317,-4.5317,-4.5317,-4.5317,-4.5317,-4.5317,-4.4142,-4.4263,-4.4299,-4.4454,-4.4512,-4.4625,-4.4677,-4.4747,-4.4812,-4.4951,-4.5037,-4.5085,-4.5165,-4.5276,-4.5371,-4.5391,-4.5429,-4.5447,-4.5467,-4.5356,-4.5344,-4.5331,-4.5305,-4.5454,-4.5454,-4.5577,-4.5578,-4.5579]}]]